DateTimeUTC,F1_A11,F1_S11,BsB_S11,BsG_S11,BsR_S11,BbsB_S11,BbsG_S11,BbsR_S11,BaB_A11,BaG_A11,BaR_A11,Tu_S11,T_S11,Uu_S11,U_S11,P_S11,T1_A11
2021-08-14T10:00:00Z,00000200,20000000,,,,,,,-000.27,-000.19,-000.10,19.8,26.1,22.7,15.5,0674.9,31.0
2021-08-14T10:01:00Z,00000200,20000000,,,,,,,0000.28,-000.32,-000.27,19.8,26.1,22.7,15.5,0674.9,31.0
2021-08-14T10:02:00Z,00000200,20000000,,,,,,,0000.17,-000.21,0000.16,19.8,26.1,22.7,15.5,0675.0,31.0
2021-08-14T10:03:00Z,00000200,60000000,,,,,,,-000.26,0000.10,-000.07,19.8,26.1,22.7,15.5,0675.0,31.0
2021-08-14T10:04:00Z,00000200,40000000,0000.45,0000.06,0000.11,0000.26,-000.09,0000.02,-000.24,-000.19,0000.13,19.9,26.0,22.5,15.6,0675.9,31.0
2021-08-14T10:05:00Z,00000200,00000000,0000.27,0000.39,0000.02,-000.03,0000.14,0000.20,0000.17,0000.39,-000.02,20.0,25.9,22.7,15.8,0676.0,31.0
2021-08-14T10:06:00Z,00000200,00000000,0000.89,0000.01,-000.17,-000.08,-000.05,-000.15,-000.23,-000.34,-000.09,20.0,26.0,22.7,15.8,0676.0,31.0
2021-08-14T10:07:00Z,00000200,00000000,0000.87,0000.30,0000.24,0000.06,0000.11,0000.29,0000.29,0000.24,-000.13,20.0,26.0,22.8,15.9,0676.0,31.0
2021-08-14T10:08:00Z,00000200,00000000,-000.10,0000.02,0000.06,0000.08,0000.05,-000.15,-000.30,-000.69,-000.13,20.0,25.9,22.9,15.9,0676.0,31.0
2021-08-14T10:09:00Z,00000200,00000000,0000.18,0000.20,0000.02,-000.20,-000.21,-000.09,0000.10,0000.07,-000.04,20.0,25.9,22.8,15.8,0676.0,31.0
2021-08-14T10:10:00Z,00000200,00000000,0000.39,0000.17,0000.06,-000.42,0000.08,0000.25,-000.15,0000.48,0000.06,20.0,25.9,22.9,15.9,0676.0,31.0
2021-08-14T10:11:00Z,00000200,00000000,0000.60,-000.11,0000.00,-000.29,0000.10,0000.05,-000.26,-000.43,-000.07,20.0,25.9,22.8,15.9,0676.0,31.0
2021-08-14T10:12:00Z,00000200,00000000,0000.29,0000.09,0000.16,-000.52,0000.28,0000.06,0000.09,-000.11,-000.31,20.0,26.0,22.8,15.9,0676.0,31.0
2021-08-14T10:13:00Z,00000200,00000000,0000.12,0000.03,0000.06,-000.38,0000.21,0000.13,-000.15,0000.11,0000.09,20.0,25.9,22.9,16.0,0676.1,31.0
2021-08-14T10:14:00Z,00000200,00000000,0000.30,0000.11,0000.32,-000.44,0000.06,-000.11,-000.12,-000.32,-000.47,20.0,25.9,22.9,16.0,0676.0,31.0
2021-08-14T10:15:00Z,00000200,00000000,0000.99,0000.36,0000.07,-000.27,0000.02,0000.00,0000.52,0000.03,0000.44,20.0,25.9,22.9,16.0,0676.0,31.0
2021-08-14T10:16:00Z,00000200,00000000,0000.85,0000.14,0000.03,-000.44,0000.08,0000.31,-000.67,-000.28,-000.27,20.1,25.9,22.9,16.1,0676.0,31.0
2021-08-14T10:17:00Z,00000200,00000000,0000.11,0000.17,-000.23,-000.16,-000.01,0000.04,-000.01,0000.09,0000.32,20.1,25.9,22.9,16.0,0676.0,31.0
2021-08-14T10:18:00Z,00000200,00000000,0000.42,-000.17,-000.09,0000.06,0000.14,0000.20,0000.05,-000.02,-000.26,20.1,25.9,22.8,16.0,0676.0,31.0
2021-08-14T10:19:00Z,00000200,00000000,0000.80,-000.30,0000.13,-000.28,0000.00,0000.10,-000.08,0000.11,-000.07,20.1,25.9,22.8,16.0,0676.0,31.0
2021-08-14T10:20:00Z,00000200,00000000,0000.53,0000.09,-000.30,-000.49,-000.08,-000.03,-000.37,-000.26,-000.21,20.1,25.9,22.9,16.0,0676.0,31.0
2021-08-14T10:21:00Z,00000200,00000000,0000.09,0000.24,-000.03,-000.34,-000.05,0000.01,0000.18,-000.07,-000.24,20.1,25.9,22.8,15.9,0676.0,31.0
2021-08-14T10:22:00Z,00000200,00000000,0001.32,0000.01,-000.10,-000.56,0000.06,-000.06,-000.14,-000.28,0000.20,20.1,26.0,22.8,16.0,0676.0,31.0
2021-08-14T10:23:00Z,00000200,00000000,0000.89,-000.05,0000.28,0000.10,0000.02,0000.20,-000.23,-000.29,-000.50,20.1,26.0,22.7,15.9,0676.0,31.0
2021-08-14T10:24:00Z,00000200,00000000,0000.22,0000.27,0000.13,0000.59,0000.01,-000.08,-000.06,-000.04,-000.08,20.1,26.0,22.7,15.9,0676.0,31.0
2021-08-14T10:25:00Z,00000200,00000000,0000.94,-000.12,0000.26,0000.14,-000.15,0000.05,-000.46,-000.39,-000.28,20.1,26.0,22.6,15.8,0676.0,31.0
2021-08-14T10:26:00Z,00000200,00000000,0000.33,-000.11,-000.06,-000.24,-000.09,0000.47,0000.33,0000.04,-000.14,20.1,26.0,22.6,15.8,0676.0,31.0
2021-08-14T10:27:00Z,00000200,00000000,0000.57,0000.04,0000.25,0000.18,-000.38,0000.35,-000.16,0000.35,0000.12,20.1,26.0,22.6,15.8,0676.0,31.0
2021-08-14T10:28:00Z,00000200,00000000,0000.35,0000.14,-000.30,0000.03,-000.32,0000.21,-000.30,-000.48,-000.22,20.1,26.0,22.6,15.8,0676.0,31.0
2021-08-14T10:29:00Z,00000200,00000000,0000.76,-000.10,-000.03,-000.50,-000.17,-000.08,0000.38,0000.01,-000.09,20.1,25.9,22.6,15.8,0675.9,31.0
2021-08-14T10:30:00Z,00000200,00000000,0000.86,-000.06,0000.05,-000.27,-000.09,0000.18,-000.42,-000.17,0000.06,20.1,25.9,22.8,16.0,0676.0,31.0
2021-08-14T10:31:00Z,00000200,00000000,0000.11,0000.04,0000.19,0000.35,0000.04,0000.32,0000.16,0000.52,0000.28,20.1,26.0,22.9,16.0,0676.0,31.0
2021-08-14T10:32:00Z,00000200,00000000,0001.07,-000.06,-000.11,0000.18,-000.09,0000.34,-000.00,-000.26,-000.11,20.1,26.0,22.9,16.0,0676.0,31.0
2021-08-14T10:33:00Z,00000200,00000000,0000.11,0000.03,0000.06,-000.15,-000.04,-000.01,-000.23,-000.40,-000.19,20.1,26.0,22.6,15.9,0676.0,31.0
2021-08-14T10:34:00Z,00000200,00000000,0001.11,0000.22,-000.01,-000.54,-000.12,0000.30,-000.62,-000.36,-000.57,20.1,26.0,22.5,15.8,0676.0,31.0
2021-08-14T10:35:00Z,00000200,00000000,0000.66,0000.41,0000.21,-000.54,-000.19,0000.35,0000.17,0000.28,0000.33,20.1,26.0,22.4,15.7,0676.0,31.0
2021-08-14T10:36:00Z,00000200,00000000,0000.68,0000.05,0000.16,-000.15,-000.26,-000.07,0000.48,0000.17,-000.23,20.1,26.0,22.6,15.9,0676.0,31.0
2021-08-14T10:37:00Z,00000200,00000000,0000.83,0000.02,0000.54,-000.18,0000.13,0000.21,0000.03,0000.04,0000.36,20.1,26.0,22.9,16.1,0676.0,31.0
2021-08-14T10:38:00Z,00000200,00000000,0000.26,0000.07,0000.43,-000.35,-000.09,0000.01,-000.21,-000.52,-000.21,20.1,26.0,23.0,16.2,0676.0,31.0
2021-08-14T10:39:00Z,00000200,00000000,0000.88,0000.12,0000.05,0000.04,-000.19,-000.08,-000.18,-000.26,-000.27,20.1,26.0,22.9,16.1,0676.0,31.0
2021-08-14T10:40:00Z,00000200,00000000,0000.14,0000.19,0000.11,0000.23,-000.06,-000.12,0000.11,0000.23,0000.24,20.1,26.0,22.8,16.1,0675.8,31.0
2021-08-14T10:41:00Z,00000200,00000000,0000.39,0000.05,-000.23,0000.09,-000.02,-000.08,-000.13,0000.06,-000.42,20.2,26.0,22.8,16.0,0675.9,31.0
2021-08-14T10:42:00Z,00000200,00000000,-000.65,-000.19,-000.45,-000.62,-000.07,-000.08,-000.61,-000.58,-000.31,20.2,26.0,22.7,16.0,0675.9,31.0
2021-08-14T10:43:00Z,00000200,00000000,-000.06,0000.01,0000.10,-000.37,0000.31,0000.10,0000.36,-000.13,-000.05,20.2,26.0,22.6,15.9,0676.0,31.0
2021-08-14T10:44:00Z,00000200,00000000,-000.35,0000.23,-000.34,-000.84,0000.28,0000.19,-000.53,-000.08,-000.28,20.2,26.0,22.6,15.9,0675.9,31.0
2021-08-14T10:45:00Z,00000200,00000000,-000.13,0000.10,0000.45,-000.24,0000.23,0000.30,-000.11,-000.16,0000.39,20.2,26.0,22.6,15.9,0675.9,31.0
2021-08-14T10:46:00Z,00000200,00000000,0000.72,0000.38,0000.09,-000.79,-000.10,0000.04,-000.28,-000.38,-000.70,20.1,26.0,22.6,15.9,0675.9,31.0
2021-08-14T10:47:00Z,00000200,00000000,0000.52,0000.02,0000.11,-000.07,-000.24,-000.09,-000.24,0000.06,-000.33,20.1,26.0,22.3,15.7,0675.9,31.0
2021-08-14T10:48:00Z,00000200,00000000,0000.60,0000.08,-000.01,-000.67,-000.31,0000.01,0000.12,0000.03,0000.47,20.1,26.0,22.3,15.7,0675.9,31.0
2021-08-14T10:49:00Z,00000200,00000000,-000.11,0000.07,0000.08,-000.13,-000.17,0000.02,-000.37,-000.56,-000.18,20.2,26.0,22.5,15.8,0676.0,31.0
2021-08-14T10:50:00Z,00000200,00000000,-000.04,0000.08,-000.13,-000.44,-000.01,0000.00,0000.28,0000.70,0000.17,20.2,26.0,22.5,15.9,0675.9,31.0
2021-08-14T10:51:00Z,00000200,00000000,-000.16,0000.31,0000.09,-000.58,-000.02,0000.46,0000.11,-000.30,-000.24,20.2,26.0,22.6,15.9,0676.0,31.0
2021-08-14T10:52:00Z,00000200,00000000,-000.35,-000.14,0000.10,-000.01,-000.16,0000.23,-000.20,0000.01,0000.22,20.2,26.0,22.6,15.9,0675.9,31.0
2021-08-14T10:53:00Z,00000200,00000000,-000.31,0000.31,0000.30,-000.42,-000.18,0000.04,0000.18,-000.44,-000.23,20.1,26.0,22.6,15.9,0675.8,31.0
2021-08-14T10:54:00Z,00000200,00000000,0000.94,-000.00,-000.18,-000.66,-000.17,-000.21,-000.50,0000.07,-000.28,20.2,26.0,22.6,15.9,0675.8,31.0
2021-08-14T10:55:00Z,00000200,00000000,0001.09,-000.04,0000.06,-000.28,0000.19,0000.19,0000.43,0000.04,0000.04,20.2,26.0,22.7,16.0,0675.9,31.0
2021-08-14T10:56:00Z,00000200,00000000,0000.53,0000.27,0000.21,-000.54,0000.02,0000.16,-000.38,-000.48,-000.13,20.2,26.0,22.8,16.0,0675.7,31.0
2021-08-14T10:57:00Z,00000200,40000000,,,,,,,-000.30,0000.23,-000.13,20.2,26.0,22.3,15.7,0675.6,31.0
2021-08-14T10:58:00Z,00000200,60000000,,,,,,,-000.35,-000.66,-000.51,20.0,26.1,22.9,15.7,0674.8,31.0
2021-08-14T10:59:00Z,00000200,20000000,,,,,,,0000.08,0000.14,-000.25,20.0,26.2,22.8,15.7,0674.7,31.0
